Starlink 5871

operational
NORAD ID: 55919 Int'l Des: 2023-037 Owner: SPXS Country: US Constellation: starlink
LEOCIRCULAR

Über Starlink 5871

Beschreibung wird geladen...

Live-Position

3D-Globus wird geladen...

Nächste Überflüge

Höhenverlauf

Altitude vs Time

uPlot chart will show altitude changes over time

Zweizeiliger Elementsatz

1 55919U 23037F 25303.29238214 .00000238 00000-0 27780-4 0 9999
2 55919 69.9986 273.2817 0003097 264.3957 95.6849 14.98334183143950
Epoch: 30. Okt. 2025 • Age: 20 hours

Aktueller Status

Höhe 581.2 km
Geschwindigkeit 7.57 km/s
Subsatellitenpunkt -29.55°S, 15.56°E
Startdatum 17. März 2023
Alter 2.6 years
Typ internet

Technische Details

Klassifizierung Payload
Masse 305.00 kg
Trockenmasse 290.00 kg
Gesamtmasse 305.00 kg
Länge 0.20 m
Durchmesser 2.80 m
Spannweite 9.00 m
Form Box + pan
Hersteller SPXS
Bus-Typ Starlink
Phasenstatus In Orbit
Besitzer/Staat SPXS/US

Große Konstellationen

Loading constellations...